Location: Maccacari
(45.1333°N, 11.1333°E)
Time: 07:21:12
(UTC+00:00)

ARGOS - Pass Details

Date: 18 September 2020
Orbit: 821 x 834 km, 98.4° (Epoch: 29 October)

Event Time Altitude Azimuth Distance (km) Brightness Sun altitude
Rises 19:13:22 0° 186° (S) 3,339 6.1 -20.2°
Reaches altitude 10° 19:15:51 10° 194° (SSW) 2,411 5.5 -20.6°
Maximum altitude 19:20:50 39° 263° (W) 1,209 4.4 -21.4°
Drops below altitude 10° 19:25:52 10° 332° (NNW) 2,433 6.3 -22.2°
Sets 19:28:23 0° 340° (NNW) 3,373 7.0 -22.6°
